[[{"header":{"parameterUnit":"m.s-1","parameterCategory":1,"la1":30.2991,"la2":30.254,"lo1":-89.0895,"lo2":-89.0444,"dy":0.0017,"dx":0.0017,"nx":28,"ny":28,"refTime":"2024-08-22T03:00:00:Z","depth":0,"parameterNumber":2,"parameterNumberName":"U-component_of_WINDS"},"data":[0,0,0,0,0,0,0,0,0,0,0,0,0,0,0,0,0,0,0,0,0,0,0,0,0,0,0,0,0,0,0,0,0,0,0,0,0,0,0,0,0,0,0,0,0,0,0,0,0,0,0,0,0,0,0,0,0,0,0.5047,0.5047,0,0.4999,0.4998,0.4998,0.4958,0.4957,0.4957,0.4956,0.4906,0.4905,0.4904,0,0,0,0,0,0,0,0,0,0,0,0,0,0.5104,0.5103,0.5047,0.5047,0.5046,0.4999,0.4998,0.4998,0.4958,0.4957,0.4957,0.4956,0.4906,0.4905,0.4904,0,0,0,0,0,0,0,0,0,0,0,0,0,0.507,0.5103,0.5047,0.502,0.5018,0.4999,0.4998,0.4998,0.4958,0.4957,0.4956,0.4956,0.4907,0.4905,0.4904,0.4908,0,0,0.49,0.4899,0,0,0,0,0,0,0,0,0.5072,0.5068,0.5025,0.5022,0.5019,0.4984,0.5,0.4968,0.4958,0.498,0.4956,0.4956,0.4932,0.4929,0.4921,0.4906,0.4904,0.49,0.4899,0.4898,0.4898,0,0,0,0,0,0,0,0.5074,0.507,0.5028,0.5024,0.5021,0.5011,0.5005,0.4994,0.4961,0.4978,0.4975,0.497,0.4931,0.4923,0.492,0.4903,0.49,0.4898,0.4897,0.4897,0.4889,0.4889,0,0,0,0,0,0,0.5081,0.5072,0.503,0.5027,0.5044,0.501,0.5004,0.4996,0.4961,0.4955,0.4971,0.4969,0.4925,0.4921,0.4918,0.492,0.4898,0.4897,0.4896,0.4888,0.4889,0.489,0,0,0,0,0,0,0.5082,0.5078,0.5032,0.5049,0.5042,0.501,0.5001,0.4995,0.4987,0.4955,0.4949,0.4969,0.4925,0.492,0.4911,0.4918,0.4896,0.4895,0.4887,0.4888,0.4889,0.4926,0,0,0,0,0,0,0.5084,0.5078,0.508,0.5049,0.5041,0.5026,0.5001,0.4995,0.4985,0.4981,0.4951,0.4946,0.4924,0.4913,0.491,0.4916,0.4894,0.4887,0.4888,0.4889,0.4924,0.4928,0.4931,0,0,0,0,0,0.5086,0.5092,0.508,0.5075,0.5042,0.5026,0.5022,0.4997,0.4986,0.4987,0.4966,0.4947,0.4918,0.4913,0.4908,0.4914,0.4886,0.4888,0.4889,0.4922,0.4927,0.4931,0,0,0,0,0,0,0.5124,0.5087,0.5074,0.5069,0.5051,0.502,0.502,0.5003,0.4987,0.4985,0.4954,0.4947,0.4942,0.4927,0.4922,0.4916,0.4899,0.49,0.4926,0.4931,0.4934,0.4938,0.4893,0,0,0,0,0,0.5132,0.5122,0.509,0.509,0.5081,0.5053,0.5045,0.5027,0.5007,0.4999,0.4978,0.4959,0.4945,0.4937,0.4923,0.4922,0.4914,0.4923,0.4927,0.493,0.4931,0.4929,0.4933,0.4894,0.4894,0.4894,0,0,0.5147,0.5126,0.5122,0.5097,0.508,0.5071,0.5046,0.5037,0.503,0.4997,0.4988,0.4972,0.4949,0.4944,0.494,0.4931,0.494,0.4932,0.4935,0.4934,0.4931,0.4935,0.4938,0.4895,0.4895,0.4895,0,0,0.5171,0.5155,0.5152,0.5137,0.5113,0.5094,0.5093,0.5064,0.5052,0.5043,0.5018,0.5009,0.4987,0.4971,0.496,0.4979,0.4961,0.4976,0.4995,0.4994,0.4997,0.4999,0.5006,0.5008,0.4977,0.4977,0.4977,0,0.5194,0.5179,0.5153,0.5145,0.5135,0.5106,0.5103,0.5089,0.5062,0.5055,0.5045,0.5017,0.4999,0.499,0.4995,0.4987,0.4986,0.4979,0.4998,0.5001,0.5003,0.5009,0.5011,0.4979,0.4978,0.4978,0.4978,0,0.5208,0.5198,0.5199,0.5174,0.5163,0.5158,0.5131,0.5124,0.5107,0.5089,0.5079,0.5057,0.5039,0.5035,0.5019,0.5024,0.5019,0.5004,0.4986,0.5009,0.5014,0.5016,0.4981,0.4981,0.498,0.498,0,0,0.5253,0.5214,0.5215,0.5203,0.5175,0.5167,0.5161,0.5143,0.5137,0.5119,0.5113,0.5095,0.5082,0.507,0.5051,0.505,0.5066,0.5035,0.5034,0.5042,0.5071,0.5082,0.5085,0.5054,0.5055,0.5055,0.5073,0,0.5272,0.526,0.5236,0.5231,0.5221,0.5194,0.5188,0.517,0.5154,0.5143,0.5124,0.5112,0.5095,0.5088,0.5085,0.5065,0.5072,0.5063,0.5048,0.5048,0.5054,0.5087,0.5099,0.5116,0.5074,0.5075,0.5075,0,0.5293,0.5277,0.5271,0.5244,0.5239,0.5235,0.5216,0.5207,0.5186,0.5174,0.5161,0.5141,0.5133,0.5117,0.5105,0.51,0.5093,0.5082,0.5082,0.5079,0.5062,0.5085,0.5121,0.5124,0.5078,0.5078,0.5077,0,0.5326,0.5304,0.5297,0.5288,0.5257,0.5254,0.5241,0.522,0.521,0.5194,0.5188,0.5171,0.5162,0.515,0.5126,0.5117,0.5117,0.5099,0.5106,0.5107,0.5107,0.5107,0.5142,0.5103,0.5103,0.5103,0.5103,0,0.535,0.5347,0.5312,0.5308,0.5304,0.5277,0.5274,0.5258,0.524,0.5232,0.5207,0.5201,0.517,0.5159,0.5141,0.5134,0.513,0.5119,0.5114,0.5121,0.5123,0.5116,0.5114,0.5103,0.5103,0.5103,0.5103,0,0.5386,0.5362,0.5353,0.5325,0.5317,0.5316,0.5291,0.5286,0.5268,0.5259,0.5255,0.5227,0.5213,0.5188,0.5168,0.5155,0.5152,0.5144,0.5159,0.5156,0.5165,0.5164,0.5196,0.5199,0.5158,0.5159,0.5159,0,0.5402,0.5399,0.5371,0.5364,0.5352,0.5341,0.5332,0.5305,0.5297,0.5273,0.5271,0.5256,0.5242,0.5222,0.52,0.5184,0.5175,0.5187,0.5172,0.5179,0.5175,0.5175,0.5174,0.519,0.5191,0.5191,0.5192,0,0.5433,0.5422,0.541,0.5393,0.5383,0.5369,0.5353,0.5349,0.532,0.5311,0.5297,0.5287,0.5266,0.5251,0.5233,0.5219,0.52,0.5197,0.5197,0.5204,0.5213,0.5208,0.5168,0.5196,0.5195,0.5195,0.5195,0.5195,0.5459,0.5456,0.5435,0.5422,0.5408,0.5395,0.5389,0.537,0.5359,0.534,0.5325,0.5313,0.5292,0.5265,0.5253,0.5242,0.5234,0.5235,0.5235,0.5236,0.5238,0.5216,0.5239,0.5239,0.5239,0.5239,0.5238,0,0.5489,0.5475,0.5463,0.5443,0.5433,0.5417,0.5399,0.5392,0.5381,0.5364,0.5352,0.5336,0.5322,0.5299,0.5282,0.5279,0.527,0.5275,0.5275,0.5272,0.5247,0.5248,0.5283,0.5283,0.5283,0.5283,0.5283,0.5283,0.5503,0.5496,0.5483,0.5469,0.5454,0.5442,0.5433,0.5421,0.5407,0.5391,0.5379,0.5364,0.5345,0.5327,0.5313,0.5307,0.5302,0.531,0.5301,0.5278,0.5274,0.527,0.5271,0.5309,0.5309,0.5327,0.5327,0.5327]},{"header":{"parameterUnit":"m.s-1","parameterCategory":1,"la1":30.2991,"la2":30.254,"lo1":-89.0895,"lo2":-89.0444,"dy":0.0017,"dx":0.0017,"nx":28,"ny":28,"refTime":"2024-08-22T03:00:00:Z","depth":0,"parameterNumber":3,"parameterNumberName":"V-component_of_WINDS"},"data":[0,0,0,0,0,0,0,0,0,0,0,0,0,0,0,0,0,0,0,0,0,0,0,0,0,0,0,0,0,0,0,0,0,0,0,0,0,0,0,0,0,0,0,0,0,0,0,0,0,0,0,0,0,0,0,0,0,0,-1.6405,-1.6406,0,-1.648,-1.6481,-1.6482,-1.6523,-1.6524,-1.6524,-1.6524,-1.6599,-1.6601,-1.6603,0,0,0,0,0,0,0,0,0,0,0,0,0,-1.6294,-1.6296,-1.6405,-1.6406,-1.6407,-1.648,-1.6481,-1.6482,-1.6523,-1.6524,-1.6524,-1.6524,-1.6598,-1.6601,-1.6603,0,0,0,0,0,0,0,0,0,0,0,0,0,-1.6353,-1.6297,-1.6405,-1.6436,-1.644,-1.648,-1.6481,-1.6483,-1.6523,-1.6524,-1.6524,-1.6524,-1.6598,-1.66,-1.6603,-1.6618,0,0,-1.6612,-1.6613,0,0,0,0,0,0,0,0,-1.635,-1.6357,-1.6431,-1.6434,-1.6438,-1.6493,-1.647,-1.6528,-1.6523,-1.6492,-1.6524,-1.6524,-1.6563,-1.6569,-1.6583,-1.6621,-1.6624,-1.6612,-1.6614,-1.6615,-1.6616,0,0,0,0,0,0,0,-1.6346,-1.6354,-1.6435,-1.6432,-1.6436,-1.6446,-1.6454,-1.6481,-1.6525,-1.6494,-1.6498,-1.6506,-1.6565,-1.658,-1.6585,-1.6625,-1.6612,-1.6615,-1.6616,-1.6618,-1.6679,-1.6679,0,0,0,0,0,0,-1.6337,-1.6351,-1.6432,-1.6437,-1.6394,-1.6448,-1.6457,-1.6475,-1.6525,-1.6533,-1.6506,-1.6508,-1.6575,-1.6581,-1.6588,-1.6608,-1.6615,-1.6618,-1.6619,-1.6679,-1.6679,-1.6679,0,0,0,0,0,0,-1.6334,-1.6344,-1.6429,-1.6395,-1.6406,-1.645,-1.6469,-1.6476,-1.6491,-1.6534,-1.6542,-1.6513,-1.6575,-1.6584,-1.661,-1.6611,-1.6619,-1.6622,-1.668,-1.6679,-1.6679,-1.6648,0,0,0,0,0,0,-1.6331,-1.6343,-1.6349,-1.6395,-1.6408,-1.6451,-1.6469,-1.6478,-1.6496,-1.6499,-1.6543,-1.655,-1.6576,-1.6606,-1.6613,-1.6615,-1.6624,-1.668,-1.6679,-1.6679,-1.6649,-1.6647,-1.6645,0,0,0,0,0,-1.6327,-1.6337,-1.6349,-1.6359,-1.6417,-1.6451,-1.6458,-1.6489,-1.6496,-1.6502,-1.653,-1.6548,-1.661,-1.6608,-1.6616,-1.662,-1.668,-1.668,-1.6679,-1.665,-1.6647,-1.6645,0,0,0,0,0,0,-1.6289,-1.6343,-1.6357,-1.6382,-1.6412,-1.6458,-1.6467,-1.6485,-1.6513,-1.6514,-1.6551,-1.656,-1.6583,-1.6604,-1.6601,-1.6636,-1.6647,-1.6648,-1.6621,-1.6619,-1.6617,-1.6611,-1.6626,0,0,0,0,0,-1.6284,-1.6307,-1.6353,-1.637,-1.6385,-1.6423,-1.6439,-1.646,-1.6492,-1.6504,-1.6534,-1.6563,-1.6589,-1.6605,-1.6632,-1.6653,-1.6663,-1.6659,-1.6657,-1.6655,-1.6656,-1.6668,-1.6667,-1.6679,-1.6679,-1.6679,0,0,-1.6272,-1.6305,-1.6317,-1.6364,-1.6389,-1.6412,-1.6433,-1.6457,-1.6474,-1.6507,-1.6534,-1.6557,-1.6592,-1.6616,-1.6628,-1.6634,-1.6655,-1.6655,-1.6653,-1.6655,-1.6668,-1.6667,-1.6666,-1.6679,-1.6679,-1.6679,0,0,-1.6264,-1.6291,-1.6309,-1.6334,-1.6372,-1.6398,-1.6402,-1.6445,-1.6462,-1.649,-1.6516,-1.6536,-1.658,-1.6605,-1.6623,-1.6624,-1.6642,-1.6631,-1.662,-1.6632,-1.6631,-1.6631,-1.6631,-1.663,-1.6632,-1.6632,-1.6632,0,-1.6245,-1.6281,-1.6315,-1.6338,-1.6357,-1.6389,-1.6407,-1.643,-1.6474,-1.6487,-1.6493,-1.655,-1.6576,-1.6605,-1.6606,-1.6619,-1.6625,-1.6626,-1.6629,-1.6628,-1.6628,-1.6629,-1.6629,-1.663,-1.6631,-1.6631,-1.6631,0,-1.6256,-1.6281,-1.6291,-1.6334,-1.6354,-1.6374,-1.641,-1.6427,-1.6447,-1.6471,-1.6499,-1.6532,-1.6565,-1.6574,-1.6593,-1.6607,-1.6609,-1.6622,-1.6633,-1.6625,-1.6626,-1.6627,-1.6628,-1.6629,-1.6629,-1.663,0,0,-1.6225,-1.6287,-1.629,-1.631,-1.6355,-1.6375,-1.6396,-1.643,-1.6443,-1.6473,-1.6492,-1.6528,-1.6541,-1.6561,-1.6583,-1.6594,-1.6592,-1.6605,-1.6606,-1.6601,-1.6609,-1.6599,-1.6599,-1.6605,-1.6605,-1.6605,-1.6606,0,-1.6223,-1.6263,-1.6294,-1.6323,-1.6346,-1.6378,-1.6396,-1.6425,-1.6449,-1.6472,-1.6498,-1.6524,-1.6538,-1.655,-1.6562,-1.659,-1.6594,-1.659,-1.6622,-1.6623,-1.6612,-1.66,-1.6589,-1.6589,-1.6607,-1.6607,-1.6607,0,-1.6225,-1.6255,-1.6286,-1.6329,-1.634,-1.6356,-1.6389,-1.6411,-1.6445,-1.6461,-1.6484,-1.6508,-1.6531,-1.654,-1.6573,-1.657,-1.6585,-1.66,-1.6601,-1.6605,-1.6614,-1.6603,-1.6589,-1.6589,-1.6608,-1.6608,-1.6608,0,-1.6199,-1.6246,-1.6271,-1.6287,-1.6338,-1.6349,-1.637,-1.6405,-1.6423,-1.6452,-1.6464,-1.6496,-1.6512,-1.6536,-1.6567,-1.6571,-1.6596,-1.6608,-1.661,-1.6609,-1.6613,-1.6613,-1.6602,-1.6624,-1.6624,-1.6624,-1.6624,0,-1.6193,-1.621,-1.626,-1.6275,-1.6296,-1.6332,-1.6351,-1.6375,-1.6405,-1.6425,-1.6454,-1.6472,-1.6512,-1.6535,-1.6559,-1.6583,-1.659,-1.6604,-1.661,-1.6601,-1.6599,-1.6611,-1.6611,-1.6624,-1.6624,-1.6624,-1.6624,0,-1.6166,-1.6201,-1.623,-1.6276,-1.6288,-1.6301,-1.634,-1.6356,-1.6382,-1.6407,-1.6415,-1.6455,-1.6483,-1.6517,-1.6556,-1.6572,-1.6593,-1.6603,-1.6582,-1.6585,-1.6585,-1.6585,-1.6581,-1.6582,-1.6603,-1.6603,-1.6603,0,-1.616,-1.6174,-1.6222,-1.6238,-1.6259,-1.6284,-1.6304,-1.6339,-1.6358,-1.6398,-1.6409,-1.644,-1.6466,-1.651,-1.6542,-1.6573,-1.6583,-1.6579,-1.6587,-1.6578,-1.6582,-1.6581,-1.6582,-1.6577,-1.6576,-1.6576,-1.6576,0,-1.6144,-1.6161,-1.6188,-1.6221,-1.6243,-1.627,-1.6299,-1.631,-1.6352,-1.6371,-1.6401,-1.6422,-1.6462,-1.6492,-1.6527,-1.6549,-1.6569,-1.6573,-1.6575,-1.6566,-1.6553,-1.656,-1.6576,-1.6573,-1.6573,-1.6573,-1.6574,-1.6574,-1.6127,-1.6142,-1.6178,-1.6207,-1.6233,-1.6259,-1.6276,-1.6305,-1.633,-1.6367,-1.6386,-1.6416,-1.645,-1.6498,-1.6519,-1.6542,-1.6549,-1.6552,-1.6553,-1.6553,-1.655,-1.655,-1.6549,-1.6549,-1.6549,-1.6549,-1.6549,0,-1.6113,-1.6138,-1.6165,-1.6204,-1.6227,-1.6246,-1.6279,-1.6296,-1.6322,-1.6352,-1.6378,-1.6413,-1.6442,-1.6477,-1.6509,-1.6521,-1.6531,-1.6528,-1.6527,-1.6532,-1.6542,-1.6537,-1.6519,-1.6519,-1.6519,-1.6519,-1.6519,-1.6519,-1.6108,-1.6134,-1.6154,-1.6193,-1.6218,-1.6248,-1.6265,-1.6289,-1.6314,-1.6351,-1.6376,-1.6399,-1.6431,-1.6466,-1.6494,-1.6504,-1.6514,-1.6508,-1.652,-1.6529,-1.6531,-1.6534,-1.6529,-1.651,-1.651,-1.6508,-1.6508,-1.6507]}]]